Orbital elements:
    P/2001 Q2 (Petriew)
T 2001 Sept. 2.186 TT                                   Marsden
q   0.94750              (2000.0)            P               Q
n   0.178872       Peri.  182.294       +0.802965       -0.579971
a   3.11966        Node   214.357       +0.550647       +0.810080
e   0.69628        Incl.   14.092       +0.228111       +0.086046
P   5.51
From 82 observations 2001 Aug. 19-21.

Ephemeris:
    P/2001 Q2 (Petriew)
Date    TT    R. A. (2000) Decl.     Delta      r     Elong.  Phase   m1    m2
2001 08 19    05 35.35   +27 56.2    0.866    0.970    61.6    66.6  10.6
2001 08 24    06 03.33   +26 09.8    0.886    0.957    60.2    66.4  10.5
2001 08 29    06 29.40   +24 09.9    0.910    0.950    59.0    65.8  10.6
2001 09 03    06 53.59   +22 01.3    0.937    0.948    58.2    64.7  10.6
2001 09 08    07 15.98   +19 48.0    0.966    0.951    57.6    63.4  10.7
2001 09 13    07 36.71   +17 33.0    0.997    0.961    57.3    61.8  10.8
2001 09 18    07 55.91   +15 18.5    1.029    0.976    57.3    60.1  11.0
2001 09 23    08 13.69   +13 06.4    1.061    0.995    57.6    58.3  11.1
2001 09 28    08 30.19   +10 57.6    1.092    1.020    58.1    56.5  11.3
2001 10 03    08 45.50   +08 52.9    1.121    1.048    58.9    54.8  11.5
2001 10 08    08 59.73   +06 52.8    1.149    1.080    59.9    53.1  11.6
2001 10 13    09 12.94   +04 57.5    1.175    1.116    61.1    51.6  11.8
2001 10 18    09 25.19   +03 07.1    1.198    1.153    62.6    50.1  12.0
2001 10 23    09 36.52   +01 21.6    1.219    1.193    64.3    48.7  12.2
2001 10 28    09 46.96   -00 18.9    1.237    1.235    66.2    47.4  12.4
2001 11 02    09 56.55   -01 54.6    1.252    1.278    68.3    46.2  12.6
2001 11 07    10 05.31   -03 25.4    1.264    1.323    70.6    45.0  12.7
2001 11 12    10 13.24   -04 51.4    1.273    1.368    73.2    43.8  12.9
2001 11 17    10 20.33   -06 12.6    1.279    1.414    76.0    42.7  13.0
2001 11 22    10 26.57   -07 28.8    1.283    1.461    78.9    41.6  13.2
2001 11 27    10 31.94   -08 40.0    1.283    1.508    82.1    40.4  13.3
2001 12 02    10 36.44   -09 45.9    1.281    1.555    85.5    39.2  13.5
2001 12 07    10 40.03   -10 46.5    1.278    1.602    89.2    37.9  13.6
2001 12 12    10 42.68   -11 41.3    1.272    1.649    93.0    36.6  13.7
2001 12 17    10 44.36   -12 29.8    1.265    1.696    97.1    35.1  13.8
2001 12 22    10 45.04   -13 11.6    1.257    1.743   101.5    33.6  13.9
2001 12 27    10 44.70   -13 46.0    1.249    1.790   106.1    31.9  14.0

Brian G. Marsden             (C) Copyright 2001 MPC           M.P.E.C. 2001-Q31

Read MPEC 2001-Q30 Read MPEC 2001-Q32


Our Web policy. Index to the CBAT/MPC/ICQ pages.

